Mount Airy, NC

3:10 PM EST on December 05, 2019 (GMT -0500)
Mount Airy-Surry County

Weather History for KMWK - June, 2019

Change the Weather History Date:

Tuesday, June 4, 2019

  Actual Average (KINT) Record (KINT)
Temperature  
Mean Temperature 64 °F -  
Max Temperature 77 °F 79 °F 93 °F (1985)
Min Temperature 52 °F 60 °F 43 °F (1969)
Growing Degree Days 14 (Base 50)    
Moisture  
Dew Point 52 °F    
Average Humidity 62    
Maximum Humidity 89    
Minimum Humidity 36    
Precipitation  
Precipitation 0.00 in - - ()
Sea Level Pressure  
Sea Level Pressure 30.18 in    
Wind  
Wind Speed 1 mph ()    
Max Wind Speed 8 mph    
Max Gust Speed -    
Visibility 10.0 miles    
Events      
Averages and records for this station are not official NWS values.
T = Trace of Precipitation, MM = Missing Value Source: Averaged Metar Reports

Daily Weather History Graph

Daily Weather History Graph

Search for Another Location

Airport or City:

Astronomy

Jun. 04, 2019 Rise Set
Actual Time 6:04 AM EDT 8:36 PM EDT
Civil Twilight 5:34 AM EDT 9:06 PM EDT
Nautical Twilight 4:57 AM EDT 9:44 PM EDT
Astronomical Twilight 4:16 AM EDT 10:25 PM EDT
Moon 7:11 AM EDT (6/4) 10:03 PM EDT (6/4)
Length of Visible Light 15h 32m
Length of Day
14h 31m
New Moon, 2% of the Moon is Illuminated
Jun 4
New Moon
Jun 10
First Quarter
Jun 17
Full
Jun 25
Last Quarter
Jul 2
New

Hourly Weather History & Observations

Time (EDT) Temp. Dew Point Humidity Pressure Visibility Wind Dir Wind Speed Gust Speed Precip Events Conditions
12:00 AM 62.6 °F 48.2 °F 59% 30.17 in 10.0 mi NNW 3.5 mph - N/A   Clear
12:20 AM 61.3 °F 48.9 °F 64% 30.17 in 10.0 mi Calm Calm - N/A   Clear
12:40 AM 60.1 °F 49.6 °F 68% 30.17 in 10.0 mi Calm Calm - N/A   Clear
1:00 AM 59.7 °F 49.6 °F 69% 30.17 in 10.0 mi Calm Calm - N/A   Clear
1:20 AM 58.6 °F 51.1 °F 76% 30.17 in 10.0 mi Calm Calm - N/A   Clear
1:40 AM 55.9 °F 50.9 °F 83% 30.17 in 10.0 mi Calm Calm - N/A   Clear
2:00 AM 55.9 °F 50.9 °F 83% 30.17 in 10.0 mi Calm Calm - N/A   Clear
2:20 AM 55.4 °F 50.2 °F 83% 30.16 in 10.0 mi Calm Calm - N/A   Clear
2:40 AM 54.5 °F 50.0 °F 85% 30.17 in 10.0 mi Calm Calm - N/A   Clear
3:00 AM 54.9 °F 50.5 °F 85% 30.17 in 10.0 mi Calm Calm - N/A   Clear
3:20 AM 53.6 °F 49.5 °F 86% 30.17 in 10.0 mi Calm Calm - N/A   Clear
3:40 AM 53.4 °F 49.6 °F 87% 30.17 in 10.0 mi Calm Calm - N/A   Clear
4:00 AM 54.5 °F 49.5 °F 83% 30.18 in 10.0 mi Calm Calm - N/A   Clear
4:20 AM 52.7 °F 48.7 °F 86% 30.19 in 10.0 mi Calm Calm - N/A   Clear
4:40 AM 52.9 °F 48.6 °F 85% 30.19 in 10.0 mi Calm Calm - N/A   Clear
5:00 AM 52.7 °F 48.6 °F 86% 30.19 in 10.0 mi Calm Calm - N/A   Clear
5:20 AM 52.3 °F 48.4 °F 86% 30.20 in 10.0 mi Calm Calm - N/A   Clear
5:40 AM 52.2 °F 49.1 °F 89% 30.21 in 10.0 mi Calm Calm - N/A   Clear
6:00 AM 52.0 °F 48.2 °F 87% 30.22 in 10.0 mi Calm Calm - N/A   Clear
6:20 AM 52.0 °F 48.4 °F 88% 30.22 in 10.0 mi Calm Calm - N/A   Clear
6:40 AM 52.2 °F 48.4 °F 87% 30.23 in 10.0 mi Calm Calm - N/A   Clear
7:00 AM 53.4 °F 50.0 °F 88% 30.24 in 10.0 mi Calm Calm - N/A   Clear
7:20 AM 54.7 °F 50.9 °F 87% 30.25 in 10.0 mi Calm Calm - N/A   Clear
7:40 AM 55.6 °F 51.1 °F 85% 30.25 in 10.0 mi Calm Calm - N/A   Clear
8:00 AM 57.4 °F 52.0 °F 82% 30.25 in 10.0 mi Calm Calm - N/A   Clear
8:20 AM 59.4 °F 52.3 °F 78% 30.26 in 10.0 mi Calm Calm - N/A   Clear
8:40 AM 60.4 °F 52.7 °F 76% 30.26 in 10.0 mi Calm Calm - N/A   Clear
9:00 AM 63.1 °F 54.5 °F 73% 30.25 in 10.0 mi Calm Calm - N/A   Clear
9:20 AM 66.4 °F 53.8 °F 64% 30.25 in 10.0 mi Calm Calm - N/A   Clear
9:40 AM 68.9 °F 48.9 °F 49% 30.25 in 10.0 mi ESE 3.5 mph - N/A   Clear
10:00 AM 69.3 °F 48.6 °F 48% 30.26 in 10.0 mi East 4.6 mph - N/A   Clear
10:20 AM 70.0 °F 48.2 °F 46% 30.25 in 10.0 mi East 3.5 mph - N/A   Clear
10:40 AM 70.2 °F 49.3 °F 47% 30.24 in 10.0 mi North 3.5 mph - N/A   Clear
11:00 AM 72.5 °F 49.5 °F 44% 30.24 in 10.0 mi Calm Calm - N/A   Clear
11:20 AM 71.8 °F 47.7 °F 42% 30.23 in 10.0 mi East 3.5 mph - N/A   Clear
11:40 AM 72.7 °F 46.2 °F 39% 30.23 in 10.0 mi NNE 3.5 mph - N/A   Clear
12:00 PM 72.5 °F 45.3 °F 38% 30.23 in 10.0 mi Calm Calm - N/A   Clear
12:20 PM 74.1 °F 45.7 °F 36% 30.22 in 10.0 mi ENE 3.5 mph - N/A   Clear
12:40 PM 74.7 °F 45.7 °F 36% 30.22 in 10.0 mi ESE 6.9 mph - N/A   Clear
1:00 PM 74.7 °F 46.6 °F 37% 30.21 in 10.0 mi ENE 3.5 mph - N/A   Clear
1:20 PM 76.3 °F 49.3 °F 39% 30.21 in 10.0 mi South 3.5 mph - N/A   Clear
1:40 PM 74.8 °F 47.1 °F 37% 30.21 in 10.0 mi Calm Calm - N/A   Clear
2:00 PM 74.7 °F 46.2 °F 36% 30.20 in 10.0 mi SSE 4.6 mph - N/A   Clear
2:20 PM 75.4 °F 46.9 °F 36% 30.19 in 10.0 mi SSE 8.1 mph - N/A   Clear
2:40 PM 75.7 °F 50.7 °F 41% 30.19 in 10.0 mi SSE 4.6 mph - N/A   Clear
3:00 PM 76.6 °F 52.0 °F 42% 30.18 in 10.0 mi SSE 3.5 mph - N/A   Clear
3:20 PM 76.6 °F 50.5 °F 40% 30.18 in 10.0 mi SSE 6.9 mph - N/A   Clear
3:40 PM 76.8 °F 51.3 °F 41% 30.17 in 10.0 mi Calm Calm - N/A   Clear
4:00 PM 77.4 °F 51.4 °F 40% 30.17 in 10.0 mi SE 6.9 mph - N/A   Clear
4:20 PM 77.5 °F 51.1 °F 40% 30.16 in 10.0 mi SSW 3.5 mph - N/A   Clear
4:40 PM 77.5 °F 51.8 °F 41% 30.15 in 10.0 mi SSE 4.6 mph - N/A   Clear
5:00 PM 77.4 °F 51.8 °F 41% 30.14 in 10.0 mi South 4.6 mph - N/A   Clear
5:20 PM 77.9 °F 53.1 °F 42% 30.13 in 10.0 mi South 3.5 mph - N/A   Clear
5:40 PM 77.4 °F 52.3 °F 42% 30.13 in 10.0 mi SW 3.5 mph - N/A   Clear
6:00 PM 77.7 °F 52.9 °F 42% 30.13 in 10.0 mi SW 4.6 mph - N/A   Clear
6:20 PM 77.4 °F 54.5 °F 45% 30.11 in 10.0 mi SE 5.8 mph - N/A   Clear
6:40 PM 77.4 °F 55.0 °F 46% 30.11 in 10.0 mi Calm Calm - N/A   Clear
7:00 PM 77.2 °F 55.6 °F 47% 30.11 in 10.0 mi SE 3.5 mph - N/A   Clear
7:20 PM 76.1 °F 56.5 °F 50% 30.11 in 10.0 mi SSE 3.5 mph - N/A   Clear
7:40 PM 75.7 °F 58.1 °F 54% 30.10 in 10.0 mi Calm Calm - N/A   Clear
8:00 PM 74.8 °F 58.6 °F 57% 30.10 in 10.0 mi Calm Calm - N/A   Clear
8:20 PM 73.8 °F 59.0 °F 60% 30.10 in 10.0 mi Calm Calm - N/A   Clear
8:40 PM 72.9 °F 59.0 °F 62% 30.10 in 10.0 mi Calm Calm - N/A   Clear
9:00 PM 72.5 °F 60.1 °F 65% 30.10 in 10.0 mi Calm Calm - N/A   Clear
9:20 PM 71.6 °F 59.5 °F 66% 30.10 in 10.0 mi Calm Calm - N/A   Clear
10:00 PM 69.4 °F 61.0 °F 74% 30.12 in 10.0 mi Calm Calm - N/A   Mostly Cloudy
10:20 PM 69.1 °F 61.2 °F 76% 30.12 in 10.0 mi Calm Calm - N/A   Mostly Cloudy
10:40 PM 68.5 °F 60.8 °F 76% 30.13 in 10.0 mi Calm Calm - N/A   Mostly Cloudy
11:00 PM 68.9 °F 61.0 °F 76% 30.13 in 10.0 mi Calm Calm - N/A   Overcast
11:20 PM 69.6 °F 60.4 °F 73% 30.13 in 10.0 mi Calm Calm - N/A   Mostly Cloudy
11:40 PM 68.0 °F 60.6 °F 77% 30.12 in 10.0 mi Calm Calm - N/A   Scattered Clouds